Location: Saluda
(35.2377°N, 82.3468°W)
Time: 07:02:25
(UTC+00:00)

Vanguard 2 - Pass Details

Date: 04 October 2022
Orbit: 553 x 2933 km, 32.9° (Epoch: 04 December)

Event Time Altitude Azimuth Distance (km) Brightness Sun altitude
Rises 23:33:03 0° 283° (WNW) 6,193 14.0 -5.8°
Reaches altitude 10° 23:37:01 10° 279° (W) 5,395 13.5 -6.6°
Maximum altitude 23:52:57 50° 211° (SSW) 3,485 11.1 -9.8°
Drops below altitude 10° 00:08:41 10° 143° (SE) 5,305 11.4 -13.0°
Sets 00:12:35 0° 137° (SE) 6,084 11.7 -13.8°
